Change the Weather History Date:

Friday, October 19, 2012

  Actual Average Record
Temperature  
Mean Temperature 42 °F 50 °F  
Max Temperature 51 °F 62 °F 90 °F (1921)
Min Temperature 33 °F 38 °F 12 °F (1917)
Degree Days  
Heating Degree Days 23 15  
Month to date heating degree days 285 228  
Since 1 July heating degree days 404 370  
Cooling Degree Days 0 0  
Month to date cooling degree days 0 8  
Year to date cooling degree days 1373 914  
Moisture  
Dew Point 36 °F    
Average Humidity 81    
Maximum Humidity 96    
Minimum Humidity 66    
Precipitation  
Precipitation 0.04 in 0.07 in 1.03 in (1919)
Month to date precipitation 0.36 1.43  
Year to date precipitation 12.81 24.65  
Snow  
Snow 0.00 in 0.00 in - ()
Month to date snowfall 0.0 0.2  
Since 1 July snowfall 0.0 0.2  
Snow Depth 0.00 in    
Sea Level Pressure  
Sea Level Pressure 29.78 in    
Wind  
Wind Speed 17 mph (NNW)    
Max Wind Speed 37 mph    
Max Gust Speed 47 mph    
Visibility 10 miles    
Events Rain    
T = Trace of Precipitation, MM = Missing Value Source: NWS Daily Summary

Daily Weather History Graph

Daily Weather History Graph

Search for Another Location

Airport or City:

Trip Planner

Search our weather history database for the weather conditions in past years. The results will help you decide how hot, cold, wet, or windy it might be!

Date:

Astronomy

Oct. 19, 2012 Rise Set
Actual Time 7:47 AM CDT 6:41 PM CDT
Civil Twilight 7:19 AM CDT 7:09 PM CDT
Nautical Twilight 6:46 AM CDT 7:41 PM CDT
Astronomical Twilight 6:14 AM CDT 8:14 PM CDT
Moon 12:35 PM CDT (10/19) 10:17 PM CDT (10/19)
Length of Visible Light 11h 50m
Length of Day
10h 53m
Waxing Crescent, 24% of the Moon is Illuminated
Oct 19
Waxing Crescent
Oct 21
First Quarter
Oct 29
Full
Nov 6
Last Quarter
Nov 13
New

Hourly Weather History & Observations

Time (CDT) Temp. Windchill Dew Point Humidity Pressure Visibility Wind Dir Wind Speed Gust Speed Precip Events Conditions
12:56 AM 43.0 °F 32.4 °F 39.0 °F 86% 29.68 in 10.0 mi NW 31.1 mph 43.7 mph 0.03 in Rain Light Rain
1:56 AM 43.0 °F 32.5 °F 37.9 °F 82% 29.68 in 10.0 mi NW 29.9 mph 46.0 mph 0.01 in Rain Light Rain
2:56 AM 43.0 °F 32.4 °F 37.0 °F 80% 29.70 in 10.0 mi NW 31.1 mph 42.6 mph 0.01 in Rain Light Rain
3:56 AM 42.1 °F 31.7 °F 37.9 °F 85% 29.70 in 10.0 mi NW 27.6 mph 40.3 mph 0.01 in Rain Light Rain
4:56 AM 43.0 °F 32.9 °F 37.0 °F 80% 29.71 in 10.0 mi NW 27.6 mph 40.3 mph 0.00 in   Overcast
5:56 AM 43.0 °F 32.2 °F 37.0 °F 80% 29.74 in 10.0 mi NNW 32.2 mph 44.9 mph N/A   Overcast
6:56 AM 43.0 °F 32.5 °F 36.0 °F 76% 29.76 in 10.0 mi NNW 29.9 mph 44.9 mph N/A   Overcast
7:56 AM 42.1 °F 31.9 °F 37.0 °F 82% 29.78 in 10.0 mi NW 26.5 mph 38.0 mph N/A   Overcast
8:56 AM 42.1 °F 31.9 °F 36.0 °F 79% 29.79 in 10.0 mi NNW 26.5 mph 34.5 mph 0.01 in   Overcast
9:56 AM 43.0 °F 33.5 °F 36.0 °F 76% 29.81 in 10.0 mi NNW 24.2 mph 35.7 mph N/A   Overcast
10:56 AM 44.1 °F 35.0 °F 36.0 °F 73% 29.82 in 10.0 mi NNW 24.2 mph 33.4 mph N/A   Overcast
11:56 AM 45.0 °F 36.2 °F 36.0 °F 71% 29.83 in 10.0 mi NNW 24.2 mph 29.9 mph N/A   Overcast
12:56 PM 48.9 °F - 37.0 °F 64% 29.81 in 10.0 mi NNW 21.9 mph 29.9 mph N/A   Overcast
2:56 PM 48.9 °F - 37.0 °F 64% 29.80 in 10.0 mi NNW 17.3 mph 26.5 mph N/A   Overcast
4:56 PM 48.9 °F - 37.0 °F 64% 29.80 in 10.0 mi NW 16.1 mph - N/A   Overcast
5:56 PM 48.9 °F - 37.0 °F 64% 29.80 in 10.0 mi NW 11.5 mph - N/A   Mostly Cloudy
6:03 PM 48.2 °F - 37.4 °F 66% 29.78 in 10.0 mi NW 9.2 mph - N/A   Scattered Clouds
6:56 PM 45.0 °F - 37.0 °F 74% 29.81 in 10.0 mi Calm Calm - N/A   Clear
7:56 PM 42.1 °F 40.2 °F 35.1 °F 76% 29.83 in 10.0 mi NNW 3.5 mph - N/A   Clear
9:56 PM 36.0 °F 33.3 °F 33.1 °F 89% 29.83 in 10.0 mi ESE 3.5 mph - N/A   Clear
10:56 PM 34.0 °F 29.8 °F 32.0 °F 92% 29.83 in 10.0 mi SSE 4.6 mph - N/A   Clear
11:56 PM 36.0 °F - 34.0 °F 93% 29.82 in 10.0 mi Calm Calm - N/A   Clear